Data supplied by UK-AIR on 30/3/2009
All Data GMT hour ending 
Status: R =Ratified P=Provisional,P*=As supplied
,,Exeter Roadside,,,,,,,,,,,,,,,,,,,,,,,
Date,time,"Nitric oxide",status,unit,"Nitrogen dioxide",status,unit,"Nitrogen oxides as nitrogen dioxide",status,unit,"Ozone",status,unit
 
01-01-2008,01:00,15,R,ugm-3,32,R,ugm-3,55,R,ugm-3,52,R,ugm-3
01-01-2008,02:00,28,R,ugm-3,53,R,ugm-3,96,R,ugm-3,34,R,ugm-3
01-01-2008,03:00,19,R,ugm-3,53,R,ugm-3,82,R,ugm-3,30,R,ugm-3
01-01-2008,04:00,28,R,ugm-3,59,R,ugm-3,101,R,ugm-3,16,R,ugm-3
01-01-2008,05:00,11,R,ugm-3,42,R,ugm-3,59,R,ugm-3,24,R,ugm-3
01-01-2008,06:00,9,R,ugm-3,36,R,ugm-3,50,R,ugm-3,20,R,ugm-3
01-01-2008,07:00,8,R,ugm-3,44,R,ugm-3,55,R,ugm-3,14,R,ugm-3
01-01-2008,08:00,43,R,ugm-3,53,R,ugm-3,118,R,ugm-3,2,R,ugm-3
01-01-2008,09:00,43,R,ugm-3,48,R,ugm-3,113,R,ugm-3,4,R,ugm-3
01-01-2008,10:00,84,R,ugm-3,53,R,ugm-3,181,R,ugm-3,4,R,ugm-3
01-01-2008,11:00,24,R,ugm-3,42,R,ugm-3,78,R,ugm-3,34,R,ugm-3
01-01-2008,12:00,11,R,ugm-3,29,R,ugm-3,46,R,ugm-3,56,R,ugm-3
01-01-2008,13:00,4,R,ugm-3,23,R,ugm-3,29,R,ugm-3,56,R,ugm-3
01-01-2008,14:00,4,R,ugm-3,23,R,ugm-3,29,R,ugm-3,58,R,ugm-3
01-01-2008,15:00,4,R,ugm-3,17,R,ugm-3,23,R,ugm-3,64,R,ugm-3
01-01-2008,16:00,18,R,ugm-3,40,R,ugm-3,67,R,ugm-3,46,R,ugm-3
01-01-2008,17:00,20,R,ugm-3,44,R,ugm-3,74,R,ugm-3,42,R,ugm-3
01-01-2008,18:00,24,R,ugm-3,55,R,ugm-3,92,R,ugm-3,36,R,ugm-3
01-01-2008,19:00,14,R,ugm-3,38,R,ugm-3,59,R,ugm-3,46,R,ugm-3
01-01-2008,20:00,9,R,ugm-3,29,R,ugm-3,42,R,ugm-3,52,R,ugm-3
01-01-2008,21:00,5,R,ugm-3,17,R,ugm-3,25,R,ugm-3,64,R,ugm-3
01-01-2008,22:00,8,R,ugm-3,15,R,ugm-3,27,R,ugm-3,70,R,ugm-3
01-01-2008,23:00,3,R,ugm-3,10,R,ugm-3,13,R,ugm-3,72,R,ugm-3
01-01-2008,24:00,1,R,ugm-3,8,R,ugm-3,10,R,ugm-3,74,R,ugm-3
02-01-2008,01:00,0,R,ugm-3,6,R,ugm-3,6,R,ugm-3,74,R,ugm-3
02-01-2008,02:00,0,R,ugm-3,6,R,ugm-3,6,R,ugm-3,70,R,ugm-3
02-01-2008,03:00,0,R,ugm-3,6,R,ugm-3,6,R,ugm-3,70,R,ugm-3
02-01-2008,04:00,1,R,ugm-3,8,R,ugm-3,10,R,ugm-3,70,R,ugm-3
02-01-2008,05:00,1,R,ugm-3,10,R,ugm-3,11,R,ugm-3,66,R,ugm-3
02-01-2008,06:00,11,R,ugm-3,15,R,ugm-3,32,R,ugm-3,60,R,ugm-3
02-01-2008,07:00,23,R,ugm-3,23,R,ugm-3,57,R,ugm-3,54,R,ugm-3
02-01-2008,08:00,20,R,ugm-3,29,R,ugm-3,59,R,ugm-3,46,R,ugm-3
02-01-2008,09:00,23,R,ugm-3,32,R,ugm-3,67,R,ugm-3,40,R,ugm-3
02-01-2008,10:00,31,R,ugm-3,38,R,ugm-3,86,R,ugm-3,34,R,ugm-3
02-01-2008,11:00,36,R,ugm-3,34,R,ugm-3,90,R,ugm-3,38,R,ugm-3
02-01-2008,12:00,44,R,ugm-3,42,R,ugm-3,109,R,ugm-3,38,R,ugm-3
02-01-2008,13:00,39,R,ugm-3,38,R,ugm-3,97,R,ugm-3,40,R,ugm-3
02-01-2008,14:00,55,R,ugm-3,53,R,ugm-3,138,R,ugm-3,30,R,ugm-3
02-01-2008,15:00,93,R,ugm-3,78,R,ugm-3,220,R,ugm-3,20,R,ugm-3
02-01-2008,16:00,83,R,ugm-3,61,R,ugm-3,187,R,ugm-3,26,R,ugm-3
02-01-2008,17:00,73,R,ugm-3,65,R,ugm-3,176,R,ugm-3,24,R,ugm-3
02-01-2008,18:00,75,R,ugm-3,55,R,ugm-3,170,R,ugm-3,26,R,ugm-3
02-01-2008,19:00,36,R,ugm-3,44,R,ugm-3,99,R,ugm-3,34,R,ugm-3
02-01-2008,20:00,34,R,ugm-3,44,R,ugm-3,96,R,ugm-3,36,R,ugm-3
02-01-2008,21:00,41,R,ugm-3,40,R,ugm-3,103,R,ugm-3,26,R,ugm-3
02-01-2008,22:00,39,R,ugm-3,32,R,ugm-3,92,R,ugm-3,26,R,ugm-3
02-01-2008,23:00,28,R,ugm-3,32,R,ugm-3,74,R,ugm-3,32,R,ugm-3
02-01-2008,24:00,19,R,ugm-3,27,R,ugm-3,55,R,ugm-3,36,R,ugm-3
03-01-2008,01:00,9,R,ugm-3,23,R,ugm-3,36,R,ugm-3,34,R,ugm-3
03-01-2008,02:00,3,R,ugm-3,23,R,ugm-3,27,R,ugm-3,28,R,ugm-3
03-01-2008,03:00,1,R,ugm-3,23,R,ugm-3,25,R,ugm-3,28,R,ugm-3
03-01-2008,04:00,5,R,ugm-3,21,R,ugm-3,29,R,ugm-3,30,R,ugm-3
03-01-2008,05:00,3,R,ugm-3,19,R,ugm-3,23,R,ugm-3,30,R,ugm-3
03-01-2008,06:00,39,R,ugm-3,32,R,ugm-3,92,R,ugm-3,26,R,ugm-3
03-01-2008,07:00,74,R,ugm-3,48,R,ugm-3,160,R,ugm-3,20,R,ugm-3
03-01-2008,08:00,88,R,ugm-3,63,R,ugm-3,197,R,ugm-3,16,R,ugm-3
03-01-2008,09:00,148,R,ugm-3,74,R,ugm-3,300,R,ugm-3,14,R,ugm-3
03-01-2008,10:00,128,R,ugm-3,82,R,ugm-3,277,R,ugm-3,16,R,ugm-3
03-01-2008,11:00,118,R,ugm-3,74,R,ugm-3,254,R,ugm-3,14,R,ugm-3
03-01-2008,12:00,100,R,ugm-3,80,R,ugm-3,233,R,ugm-3,14,R,ugm-3
03-01-2008,13:00,138,R,ugm-3,88,R,ugm-3,298,R,ugm-3,12,R,ugm-3
03-01-2008,14:00,103,R,ugm-3,67,R,ugm-3,223,R,ugm-3,16,R,ugm-3
03-01-2008,15:00,,,,,,,,,,,,
03-01-2008,16:00,125,R,ugm-3,78,R,ugm-3,269,R,ugm-3,12,R,ugm-3
03-01-2008,17:00,149,R,ugm-3,84,R,ugm-3,311,R,ugm-3,10,R,ugm-3
03-01-2008,18:00,156,R,ugm-3,80,R,ugm-3,319,R,ugm-3,8,R,ugm-3
03-01-2008,19:00,69,R,ugm-3,61,R,ugm-3,166,R,ugm-3,10,R,ugm-3
03-01-2008,20:00,56,R,ugm-3,50,R,ugm-3,136,R,ugm-3,8,R,ugm-3
03-01-2008,21:00,46,R,ugm-3,50,R,ugm-3,120,R,ugm-3,8,R,ugm-3
03-01-2008,22:00,38,R,ugm-3,48,R,ugm-3,105,R,ugm-3,6,R,ugm-3
03-01-2008,23:00,40,R,ugm-3,46,R,ugm-3,107,R,ugm-3,6,R,ugm-3
03-01-2008,24:00,34,R,ugm-3,46,R,ugm-3,97,R,ugm-3,2,R,ugm-3
04-01-2008,01:00,8,R,ugm-3,40,R,ugm-3,52,R,ugm-3,4,R,ugm-3
04-01-2008,02:00,5,R,ugm-3,40,R,ugm-3,48,R,ugm-3,4,R,ugm-3
04-01-2008,03:00,4,R,ugm-3,40,R,ugm-3,46,R,ugm-3,2,R,ugm-3
04-01-2008,04:00,11,R,ugm-3,40,R,ugm-3,57,R,ugm-3,2,R,ugm-3
04-01-2008,05:00,20,R,ugm-3,42,R,ugm-3,73,R,ugm-3,2,R,ugm-3
04-01-2008,06:00,83,R,ugm-3,44,R,ugm-3,170,R,ugm-3,2,R,ugm-3
04-01-2008,07:00,156,R,ugm-3,50,R,ugm-3,288,R,ugm-3,2,R,ugm-3
04-01-2008,08:00,188,R,ugm-3,76,R,ugm-3,363,R,ugm-3,4,R,ugm-3
04-01-2008,09:00,234,R,ugm-3,97,R,ugm-3,455,R,ugm-3,4,R,ugm-3
04-01-2008,10:00,234,R,ugm-3,80,R,ugm-3,437,R,ugm-3,4,R,ugm-3
04-01-2008,11:00,269,R,ugm-3,101,R,ugm-3,512,R,ugm-3,4,R,ugm-3
04-01-2008,12:00,219,R,ugm-3,92,R,ugm-3,426,R,ugm-3,4,R,ugm-3
04-01-2008,13:00,223,R,ugm-3,94,R,ugm-3,434,R,ugm-3,4,R,ugm-3
04-01-2008,14:00,109,R,ugm-3,67,R,ugm-3,233,R,ugm-3,4,R,ugm-3
04-01-2008,15:00,39,R,ugm-3,57,R,ugm-3,117,R,ugm-3,12,R,ugm-3
04-01-2008,16:00,23,R,ugm-3,46,R,ugm-3,80,R,ugm-3,32,R,ugm-3
04-01-2008,17:00,18,R,ugm-3,36,R,ugm-3,63,R,ugm-3,42,R,ugm-3
04-01-2008,18:00,13,R,ugm-3,29,R,ugm-3,48,R,ugm-3,52,R,ugm-3
04-01-2008,19:00,14,R,ugm-3,32,R,ugm-3,53,R,ugm-3,62,R,ugm-3
04-01-2008,20:00,13,R,ugm-3,38,R,ugm-3,57,R,ugm-3,54,R,ugm-3
04-01-2008,21:00,6,R,ugm-3,27,R,ugm-3,36,R,ugm-3,62,R,ugm-3
04-01-2008,22:00,9,R,ugm-3,23,R,ugm-3,36,R,ugm-3,66,R,ugm-3
04-01-2008,23:00,11,R,ugm-3,29,R,ugm-3,46,R,ugm-3,62,R,ugm-3
04-01-2008,24:00,11,R,ugm-3,34,R,ugm-3,52,R,ugm-3,54,R,ugm-3
05-01-2008,01:00,8,R,ugm-3,15,R,ugm-3,27,R,ugm-3,70,R,ugm-3
05-01-2008,02:00,4,R,ugm-3,10,R,ugm-3,15,R,ugm-3,76,R,ugm-3
05-01-2008,03:00,4,R,ugm-3,8,R,ugm-3,13,R,ugm-3,78,R,ugm-3
05-01-2008,04:00,1,R,ugm-3,4,R,ugm-3,6,R,ugm-3,82,R,ugm-3
05-01-2008,05:00,0,R,ugm-3,2,R,ugm-3,2,R,ugm-3,84,R,ugm-3
05-01-2008,06:00,4,R,ugm-3,10,R,ugm-3,15,R,ugm-3,78,R,ugm-3
05-01-2008,07:00,10,R,ugm-3,17,R,ugm-3,32,R,ugm-3,70,R,ugm-3
05-01-2008,08:00,16,R,ugm-3,27,R,ugm-3,52,R,ugm-3,62,R,ugm-3
05-01-2008,09:00,26,R,ugm-3,44,R,ugm-3,84,R,ugm-3,52,R,ugm-3
05-01-2008,10:00,39,R,ugm-3,48,R,ugm-3,107,R,ugm-3,42,R,ugm-3
05-01-2008,11:00,24,R,ugm-3,42,R,ugm-3,78,R,ugm-3,50,R,ugm-3
05-01-2008,12:00,26,R,ugm-3,52,R,ugm-3,92,R,ugm-3,48,R,ugm-3
05-01-2008,13:00,38,R,ugm-3,57,R,ugm-3,115,R,ugm-3,42,R,ugm-3
05-01-2008,14:00,21,R,ugm-3,34,R,ugm-3,67,R,ugm-3,62,R,ugm-3
05-01-2008,15:00,39,R,ugm-3,38,R,ugm-3,97,R,ugm-3,58,R,ugm-3
05-01-2008,16:00,56,R,ugm-3,63,R,ugm-3,149,R,ugm-3,38,R,ugm-3
05-01-2008,17:00,59,R,ugm-3,73,R,ugm-3,162,R,ugm-3,26,R,ugm-3
05-01-2008,18:00,68,R,ugm-3,74,R,ugm-3,178,R,ugm-3,26,R,ugm-3
05-01-2008,19:00,29,R,ugm-3,48,R,ugm-3,92,R,ugm-3,42,R,ugm-3
05-01-2008,20:00,6,R,ugm-3,23,R,ugm-3,32,R,ugm-3,64,R,ugm-3
05-01-2008,21:00,46,R,ugm-3,61,R,ugm-3,132,R,ugm-3,40,R,ugm-3
05-01-2008,22:00,78,R,ugm-3,94,R,ugm-3,212,R,ugm-3,16,R,ugm-3
05-01-2008,23:00,26,R,ugm-3,52,R,ugm-3,92,R,ugm-3,40,R,ugm-3
05-01-2008,24:00,24,R,ugm-3,53,R,ugm-3,90,R,ugm-3,40,R,ugm-3
06-01-2008,01:00,45,R,ugm-3,73,R,ugm-3,141,R,ugm-3,20,R,ugm-3
06-01-2008,02:00,23,R,ugm-3,65,R,ugm-3,99,R,ugm-3,14,R,ugm-3
06-01-2008,03:00,25,R,ugm-3,61,R,ugm-3,99,R,ugm-3,10,R,ugm-3
06-01-2008,04:00,24,R,ugm-3,53,R,ugm-3,90,R,ugm-3,4,R,ugm-3
06-01-2008,05:00,11,R,ugm-3,50,R,ugm-3,67,R,ugm-3,8,R,ugm-3
06-01-2008,06:00,13,R,ugm-3,48,R,ugm-3,67,R,ugm-3,12,R,ugm-3
06-01-2008,07:00,46,R,ugm-3,50,R,ugm-3,120,R,ugm-3,6,R,ugm-3
06-01-2008,08:00,65,R,ugm-3,53,R,ugm-3,153,R,ugm-3,2,R,ugm-3
06-01-2008,09:00,129,R,ugm-3,78,R,ugm-3,275,R,ugm-3,2,R,ugm-3
06-01-2008,10:00,136,R,ugm-3,71,R,ugm-3,279,R,ugm-3,4,R,ugm-3
06-01-2008,11:00,150,R,ugm-3,82,R,ugm-3,311,R,ugm-3,4,R,ugm-3
06-01-2008,12:00,199,R,ugm-3,96,R,ugm-3,399,R,ugm-3,4,R,ugm-3
06-01-2008,13:00,211,R,ugm-3,113,R,ugm-3,435,R,ugm-3,6,R,ugm-3
06-01-2008,14:00,29,R,ugm-3,61,R,ugm-3,105,R,ugm-3,32,R,ugm-3
06-01-2008,15:00,5,R,ugm-3,27,R,ugm-3,34,R,ugm-3,64,R,ugm-3
06-01-2008,16:00,11,R,ugm-3,29,R,ugm-3,46,R,ugm-3,60,R,ugm-3
06-01-2008,17:00,10,R,ugm-3,27,R,ugm-3,42,R,ugm-3,62,R,ugm-3
06-01-2008,18:00,5,R,ugm-3,27,R,ugm-3,34,R,ugm-3,60,R,ugm-3
06-01-2008,19:00,6,R,ugm-3,31,R,ugm-3,40,R,ugm-3,52,R,ugm-3
06-01-2008,20:00,5,R,ugm-3,10,R,ugm-3,17,R,ugm-3,80,R,ugm-3
06-01-2008,21:00,5,R,ugm-3,11,R,ugm-3,19,R,ugm-3,76,R,ugm-3
06-01-2008,22:00,5,R,ugm-3,13,R,ugm-3,21,R,ugm-3,78,R,ugm-3
06-01-2008,23:00,1,R,ugm-3,6,R,ugm-3,8,R,ugm-3,80,R,ugm-3
06-01-2008,24:00,3,R,ugm-3,4,R,ugm-3,8,R,ugm-3,84,R,ugm-3
07-01-2008,01:00,1,R,ugm-3,2,R,ugm-3,4,R,ugm-3,80,R,ugm-3
07-01-2008,02:00,0,R,ugm-3,2,R,ugm-3,2,R,ugm-3,82,R,ugm-3
07-01-2008,03:00,0,R,ugm-3,0,R,ugm-3,0,R,ugm-3,82,R,ugm-3
07-01-2008,04:00,0,R,ugm-3,2,R,ugm-3,2,R,ugm-3,80,R,ugm-3
07-01-2008,05:00,1,R,ugm-3,4,R,ugm-3,6,R,ugm-3,76,R,ugm-3
07-01-2008,06:00,3,R,ugm-3,8,R,ugm-3,11,R,ugm-3,72,R,ugm-3
07-01-2008,07:00,16,R,ugm-3,11,R,ugm-3,36,R,ugm-3,64,R,ugm-3
07-01-2008,08:00,24,R,ugm-3,38,R,ugm-3,74,R,ugm-3,52,R,ugm-3
07-01-2008,09:00,33,R,ugm-3,42,R,ugm-3,92,R,ugm-3,50,R,ugm-3
07-01-2008,10:00,16,R,ugm-3,29,R,ugm-3,53,R,ugm-3,58,R,ugm-3
07-01-2008,11:00,13,R,ugm-3,19,R,ugm-3,38,R,ugm-3,68,R,ugm-3
07-01-2008,12:00,11,R,ugm-3,21,R,ugm-3,38,R,ugm-3,64,R,ugm-3
07-01-2008,13:00,16,R,ugm-3,21,R,ugm-3,46,R,ugm-3,60,R,ugm-3
07-01-2008,14:00,9,R,ugm-3,19,R,ugm-3,32,R,ugm-3,62,R,ugm-3
07-01-2008,15:00,8,R,ugm-3,15,R,ugm-3,27,R,ugm-3,64,R,ugm-3
07-01-2008,16:00,18,R,ugm-3,31,R,ugm-3,57,R,ugm-3,50,R,ugm-3
07-01-2008,17:00,64,R,ugm-3,73,R,ugm-3,170,R,ugm-3,24,R,ugm-3
07-01-2008,18:00,74,R,ugm-3,71,R,ugm-3,183,R,ugm-3,24,R,ugm-3
07-01-2008,19:00,18,R,ugm-3,50,R,ugm-3,76,R,ugm-3,36,R,ugm-3
07-01-2008,20:00,20,R,ugm-3,53,R,ugm-3,84,R,ugm-3,26,R,ugm-3
07-01-2008,21:00,15,R,ugm-3,42,R,ugm-3,65,R,ugm-3,38,R,ugm-3
07-01-2008,22:00,5,R,ugm-3,17,R,ugm-3,25,R,ugm-3,60,R,ugm-3
07-01-2008,23:00,5,R,ugm-3,21,R,ugm-3,29,R,ugm-3,56,R,ugm-3
07-01-2008,24:00,1,R,ugm-3,10,R,ugm-3,11,R,ugm-3,64,R,ugm-3
08-01-2008,01:00,1,R,ugm-3,8,R,ugm-3,10,R,ugm-3,68,R,ugm-3
08-01-2008,02:00,0,R,ugm-3,11,R,ugm-3,11,R,ugm-3,62,R,ugm-3
08-01-2008,03:00,1,R,ugm-3,8,R,ugm-3,10,R,ugm-3,66,R,ugm-3
08-01-2008,04:00,0,R,ugm-3,6,R,ugm-3,6,R,ugm-3,70,R,ugm-3
08-01-2008,05:00,1,R,ugm-3,11,R,ugm-3,13,R,ugm-3,64,R,ugm-3
08-01-2008,06:00,8,R,ugm-3,25,R,ugm-3,36,R,ugm-3,54,R,ugm-3
08-01-2008,07:00,6,R,ugm-3,25,R,ugm-3,34,R,ugm-3,58,R,ugm-3
08-01-2008,08:00,14,R,ugm-3,42,R,ugm-3,63,R,ugm-3,48,R,ugm-3
08-01-2008,09:00,11,R,ugm-3,36,R,ugm-3,53,R,ugm-3,54,R,ugm-3
08-01-2008,10:00,11,R,ugm-3,31,R,ugm-3,48,R,ugm-3,58,R,ugm-3
08-01-2008,11:00,11,R,ugm-3,27,R,ugm-3,44,R,ugm-3,62,R,ugm-3
08-01-2008,12:00,10,R,ugm-3,27,R,ugm-3,42,R,ugm-3,62,R,ugm-3
08-01-2008,13:00,13,R,ugm-3,31,R,ugm-3,50,R,ugm-3,58,R,ugm-3
08-01-2008,14:00,11,R,ugm-3,31,R,ugm-3,48,R,ugm-3,60,R,ugm-3
08-01-2008,15:00,10,R,ugm-3,27,R,ugm-3,42,R,ugm-3,66,R,ugm-3
08-01-2008,16:00,13,R,ugm-3,29,R,ugm-3,48,R,ugm-3,62,R,ugm-3
08-01-2008,17:00,10,R,ugm-3,31,R,ugm-3,46,R,ugm-3,62,R,ugm-3
08-01-2008,18:00,9,R,ugm-3,25,R,ugm-3,38,R,ugm-3,66,R,ugm-3
08-01-2008,19:00,3,R,ugm-3,15,R,ugm-3,19,R,ugm-3,74,R,ugm-3
08-01-2008,20:00,5,R,ugm-3,11,R,ugm-3,19,R,ugm-3,76,R,ugm-3
08-01-2008,21:00,8,R,ugm-3,19,R,ugm-3,31,R,ugm-3,66,R,ugm-3
08-01-2008,22:00,9,R,ugm-3,27,R,ugm-3,40,R,ugm-3,60,R,ugm-3
08-01-2008,23:00,3,R,ugm-3,10,R,ugm-3,13,R,ugm-3,72,R,ugm-3
08-01-2008,24:00,4,R,ugm-3,8,R,ugm-3,13,R,ugm-3,78,R,ugm-3
09-01-2008,01:00,1,R,ugm-3,2,R,ugm-3,4,R,ugm-3,80,R,ugm-3
09-01-2008,02:00,0,R,ugm-3,2,R,ugm-3,2,R,ugm-3,78,R,ugm-3
09-01-2008,03:00,0,R,ugm-3,4,R,ugm-3,4,R,ugm-3,80,R,ugm-3
09-01-2008,04:00,1,R,ugm-3,4,R,ugm-3,6,R,ugm-3,78,R,ugm-3
09-01-2008,05:00,3,R,ugm-3,8,R,ugm-3,11,R,ugm-3,72,R,ugm-3
09-01-2008,06:00,10,R,ugm-3,15,R,ugm-3,31,R,ugm-3,66,R,ugm-3
09-01-2008,07:00,21,R,ugm-3,38,R,ugm-3,71,R,ugm-3,48,R,ugm-3
09-01-2008,08:00,48,R,ugm-3,61,R,ugm-3,134,R,ugm-3,30,R,ugm-3
09-01-2008,09:00,46,R,ugm-3,71,R,ugm-3,141,R,ugm-3,24,R,ugm-3
09-01-2008,10:00,23,R,ugm-3,48,R,ugm-3,82,R,ugm-3,42,R,ugm-3
09-01-2008,11:00,23,R,ugm-3,42,R,ugm-3,76,R,ugm-3,46,R,ugm-3
09-01-2008,12:00,21,R,ugm-3,34,R,ugm-3,67,R,ugm-3,54,R,ugm-3
09-01-2008,13:00,20,R,ugm-3,32,R,ugm-3,63,R,ugm-3,56,R,ugm-3
09-01-2008,14:00,23,R,ugm-3,29,R,ugm-3,63,R,ugm-3,60,R,ugm-3
09-01-2008,15:00,25,R,ugm-3,34,R,ugm-3,73,R,ugm-3,54,R,ugm-3
09-01-2008,16:00,23,R,ugm-3,44,R,ugm-3,78,R,ugm-3,44,R,ugm-3
09-01-2008,17:00,21,R,ugm-3,46,R,ugm-3,78,R,ugm-3,40,R,ugm-3
09-01-2008,18:00,28,R,ugm-3,48,R,ugm-3,90,R,ugm-3,40,R,ugm-3
09-01-2008,19:00,4,R,ugm-3,21,R,ugm-3,27,R,ugm-3,66,R,ugm-3
09-01-2008,20:00,3,R,ugm-3,11,R,ugm-3,15,R,ugm-3,72,R,ugm-3
09-01-2008,21:00,1,R,ugm-3,8,R,ugm-3,10,R,ugm-3,74,R,ugm-3
09-01-2008,22:00,1,R,ugm-3,8,R,ugm-3,10,R,ugm-3,76,R,ugm-3
09-01-2008,23:00,1,R,ugm-3,4,R,ugm-3,6,R,ugm-3,78,R,ugm-3
09-01-2008,24:00,1,R,ugm-3,6,R,ugm-3,8,R,ugm-3,78,R,ugm-3
10-01-2008,01:00,0,R,ugm-3,4,R,ugm-3,4,R,ugm-3,80,R,ugm-3
10-01-2008,02:00,0,R,ugm-3,4,R,ugm-3,4,R,ugm-3,80,R,ugm-3
10-01-2008,03:00,0,R,ugm-3,2,R,ugm-3,2,R,ugm-3,82,R,ugm-3
10-01-2008,04:00,0,R,ugm-3,4,R,ugm-3,4,R,ugm-3,82,R,ugm-3
10-01-2008,05:00,1,R,ugm-3,6,R,ugm-3,8,R,ugm-3,80,R,ugm-3
10-01-2008,06:00,3,R,ugm-3,10,R,ugm-3,13,R,ugm-3,76,R,ugm-3
10-01-2008,07:00,4,R,ugm-3,13,R,ugm-3,19,R,ugm-3,74,R,ugm-3
10-01-2008,08:00,9,R,ugm-3,21,R,ugm-3,34,R,ugm-3,66,R,ugm-3
10-01-2008,09:00,11,R,ugm-3,27,R,ugm-3,44,R,ugm-3,62,R,ugm-3
10-01-2008,10:00,9,R,ugm-3,25,R,ugm-3,38,R,ugm-3,64,R,ugm-3
10-01-2008,11:00,6,R,ugm-3,19,R,ugm-3,29,R,ugm-3,68,R,ugm-3
10-01-2008,12:00,10,R,ugm-3,25,R,ugm-3,40,R,ugm-3,64,R,ugm-3
10-01-2008,13:00,18,R,ugm-3,25,R,ugm-3,52,R,ugm-3,58,R,ugm-3
10-01-2008,14:00,28,R,ugm-3,32,R,ugm-3,74,R,ugm-3,50,R,ugm-3
10-01-2008,15:00,30,R,ugm-3,46,R,ugm-3,92,R,ugm-3,38,R,ugm-3
10-01-2008,16:00,25,R,ugm-3,42,R,ugm-3,80,R,ugm-3,34,R,ugm-3
10-01-2008,17:00,29,R,ugm-3,46,R,ugm-3,90,R,ugm-3,30,R,ugm-3
10-01-2008,18:00,40,R,ugm-3,57,R,ugm-3,118,R,ugm-3,22,R,ugm-3
10-01-2008,19:00,16,R,ugm-3,40,R,ugm-3,65,R,ugm-3,32,R,ugm-3
10-01-2008,20:00,19,R,ugm-3,40,R,ugm-3,69,R,ugm-3,32,R,ugm-3
10-01-2008,21:00,24,R,ugm-3,50,R,ugm-3,86,R,ugm-3,20,R,ugm-3
10-01-2008,22:00,78,R,ugm-3,73,R,ugm-3,191,R,ugm-3,10,R,ugm-3
10-01-2008,23:00,65,R,ugm-3,73,R,ugm-3,172,R,ugm-3,8,R,ugm-3
10-01-2008,24:00,39,R,ugm-3,59,R,ugm-3,118,R,ugm-3,10,R,ugm-3
11-01-2008,01:00,36,R,ugm-3,63,R,ugm-3,118,R,ugm-3,6,R,ugm-3
11-01-2008,02:00,30,R,ugm-3,52,R,ugm-3,97,R,ugm-3,6,R,ugm-3
11-01-2008,03:00,10,R,ugm-3,36,R,ugm-3,52,R,ugm-3,6,R,ugm-3
11-01-2008,04:00,14,R,ugm-3,27,R,ugm-3,48,R,ugm-3,6,R,ugm-3
11-01-2008,05:00,15,R,ugm-3,21,R,ugm-3,44,R,ugm-3,28,R,ugm-3
11-01-2008,06:00,28,R,ugm-3,32,R,ugm-3,74,R,ugm-3,28,R,ugm-3
11-01-2008,07:00,85,R,ugm-3,50,R,ugm-3,180,R,ugm-3,24,R,ugm-3
11-01-2008,08:00,110,R,ugm-3,78,R,ugm-3,246,R,ugm-3,22,R,ugm-3
11-01-2008,09:00,101,R,ugm-3,78,R,ugm-3,233,R,ugm-3,24,R,ugm-3
11-01-2008,10:00,113,R,ugm-3,82,R,ugm-3,254,R,ugm-3,26,R,ugm-3
11-01-2008,11:00,78,R,ugm-3,74,R,ugm-3,193,R,ugm-3,30,R,ugm-3
11-01-2008,12:00,154,R,ugm-3,97,R,ugm-3,332,R,ugm-3,22,R,ugm-3
11-01-2008,13:00,100,R,ugm-3,76,R,ugm-3,229,R,ugm-3,24,R,ugm-3
11-01-2008,14:00,71,R,ugm-3,63,R,ugm-3,172,R,ugm-3,28,R,ugm-3
11-01-2008,15:00,90,R,ugm-3,63,R,ugm-3,201,R,ugm-3,36,R,ugm-3
11-01-2008,16:00,71,R,ugm-3,59,R,ugm-3,168,R,ugm-3,38,R,ugm-3
11-01-2008,17:00,93,R,ugm-3,73,R,ugm-3,214,R,ugm-3,28,R,ugm-3
11-01-2008,18:00,54,R,ugm-3,44,R,ugm-3,126,R,ugm-3,38,R,ugm-3
11-01-2008,19:00,24,R,ugm-3,25,R,ugm-3,61,R,ugm-3,50,R,ugm-3
11-01-2008,20:00,10,R,ugm-3,21,R,ugm-3,36,R,ugm-3,56,R,ugm-3
11-01-2008,21:00,8,R,ugm-3,15,R,ugm-3,27,R,ugm-3,64,R,ugm-3
11-01-2008,22:00,13,R,ugm-3,17,R,ugm-3,36,R,ugm-3,62,R,ugm-3
11-01-2008,23:00,10,R,ugm-3,19,R,ugm-3,34,R,ugm-3,60,R,ugm-3
11-01-2008,24:00,5,R,ugm-3,13,R,ugm-3,21,R,ugm-3,66,R,ugm-3
12-01-2008,01:00,3,R,ugm-3,11,R,ugm-3,15,R,ugm-3,68,R,ugm-3
12-01-2008,02:00,1,R,ugm-3,10,R,ugm-3,11,R,ugm-3,68,R,ugm-3
12-01-2008,03:00,3,R,ugm-3,10,R,ugm-3,13,R,ugm-3,66,R,ugm-3
12-01-2008,04:00,1,R,ugm-3,8,R,ugm-3,10,R,ugm-3,64,R,ugm-3
12-01-2008,05:00,0,R,ugm-3,13,R,ugm-3,13,R,ugm-3,60,R,ugm-3
12-01-2008,06:00,41,R,ugm-3,46,R,ugm-3,109,R,ugm-3,24,R,ugm-3
12-01-2008,07:00,80,R,ugm-3,74,R,ugm-3,197,R,ugm-3,8,R,ugm-3
12-01-2008,08:00,140,R,ugm-3,88,R,ugm-3,302,R,ugm-3,2,R,ugm-3
12-01-2008,09:00,158,R,ugm-3,101,R,ugm-3,342,R,ugm-3,4,R,ugm-3
12-01-2008,10:00,153,R,ugm-3,96,R,ugm-3,329,R,ugm-3,6,R,ugm-3
12-01-2008,11:00,115,R,ugm-3,86,R,ugm-3,262,R,ugm-3,12,R,ugm-3
12-01-2008,12:00,56,R,ugm-3,61,R,ugm-3,147,R,ugm-3,28,R,ugm-3
12-01-2008,13:00,35,R,ugm-3,52,R,ugm-3,105,R,ugm-3,34,R,ugm-3
12-01-2008,14:00,33,R,ugm-3,55,R,ugm-3,105,R,ugm-3,32,R,ugm-3
12-01-2008,15:00,21,R,ugm-3,48,R,ugm-3,80,R,ugm-3,40,R,ugm-3
12-01-2008,16:00,21,R,ugm-3,46,R,ugm-3,78,R,ugm-3,38,R,ugm-3
12-01-2008,17:00,21,R,ugm-3,44,R,ugm-3,76,R,ugm-3,38,R,ugm-3
12-01-2008,18:00,36,R,ugm-3,53,R,ugm-3,109,R,ugm-3,34,R,ugm-3
12-01-2008,19:00,33,R,ugm-3,55,R,ugm-3,105,R,ugm-3,34,R,ugm-3
12-01-2008,20:00,14,R,ugm-3,42,R,ugm-3,63,R,ugm-3,42,R,ugm-3
12-01-2008,21:00,4,R,ugm-3,21,R,ugm-3,27,R,ugm-3,62,R,ugm-3
12-01-2008,22:00,5,R,ugm-3,19,R,ugm-3,27,R,ugm-3,64,R,ugm-3
12-01-2008,23:00,5,R,ugm-3,17,R,ugm-3,25,R,ugm-3,66,R,ugm-3
12-01-2008,24:00,1,R,ugm-3,8,R,ugm-3,10,R,ugm-3,72,R,ugm-3
13-01-2008,01:00,1,R,ugm-3,8,R,ugm-3,10,R,ugm-3,74,R,ugm-3
13-01-2008,02:00,1,R,ugm-3,8,R,ugm-3,10,R,ugm-3,76,R,ugm-3
13-01-2008,03:00,1,R,ugm-3,8,R,ugm-3,10,R,ugm-3,76,R,ugm-3
13-01-2008,04:00,0,R,ugm-3,6,R,ugm-3,6,R,ugm-3,78,R,ugm-3
13-01-2008,05:00,1,R,ugm-3,6,R,ugm-3,8,R,ugm-3,78,R,ugm-3
13-01-2008,06:00,0,R,ugm-3,6,R,ugm-3,6,R,ugm-3,76,R,ugm-3
13-01-2008,07:00,4,R,ugm-3,13,R,ugm-3,19,R,ugm-3,70,R,ugm-3
13-01-2008,08:00,5,R,ugm-3,15,R,ugm-3,23,R,ugm-3,66,R,ugm-3
13-01-2008,09:00,3,R,ugm-3,8,R,ugm-3,11,R,ugm-3,70,R,ugm-3
13-01-2008,10:00,3,R,ugm-3,11,R,ugm-3,15,R,ugm-3,68,R,ugm-3
13-01-2008,11:00,3,R,ugm-3,10,R,ugm-3,13,R,ugm-3,68,R,ugm-3
13-01-2008,12:00,3,R,ugm-3,11,R,ugm-3,15,R,ugm-3,66,R,ugm-3
13-01-2008,13:00,3,R,ugm-3,10,R,ugm-3,13,R,ugm-3,66,R,ugm-3
13-01-2008,14:00,3,R,ugm-3,11,R,ugm-3,15,R,ugm-3,68,R,ugm-3
13-01-2008,15:00,3,R,ugm-3,13,R,ugm-3,17,R,ugm-3,66,R,ugm-3
13-01-2008,16:00,3,R,ugm-3,11,R,ugm-3,15,R,ugm-3,66,R,ugm-3
13-01-2008,17:00,4,R,ugm-3,13,R,ugm-3,19,R,ugm-3,64,R,ugm-3
13-01-2008,18:00,3,R,ugm-3,13,R,ugm-3,17,R,ugm-3,62,R,ugm-3
13-01-2008,19:00,3,R,ugm-3,17,R,ugm-3,21,R,ugm-3,70,R,ugm-3
13-01-2008,20:00,4,R,ugm-3,23,R,ugm-3,29,R,ugm-3,66,R,ugm-3
13-01-2008,21:00,3,R,ugm-3,17,R,ugm-3,21,R,ugm-3,66,R,ugm-3
13-01-2008,22:00,4,R,ugm-3,15,R,ugm-3,21,R,ugm-3,64,R,ugm-3
13-01-2008,23:00,8,R,ugm-3,21,R,ugm-3,32,R,ugm-3,56,R,ugm-3
13-01-2008,24:00,11,R,ugm-3,27,R,ugm-3,44,R,ugm-3,48,R,ugm-3
14-01-2008,01:00,6,R,ugm-3,17,R,ugm-3,27,R,ugm-3,52,R,ugm-3
14-01-2008,02:00,3,R,ugm-3,15,R,ugm-3,19,R,ugm-3,54,R,ugm-3
14-01-2008,03:00,0,R,ugm-3,4,R,ugm-3,4,R,ugm-3,70,R,ugm-3
14-01-2008,04:00,0,R,ugm-3,4,R,ugm-3,4,R,ugm-3,68,R,ugm-3
14-01-2008,05:00,0,R,ugm-3,8,R,ugm-3,8,R,ugm-3,66,R,ugm-3
14-01-2008,06:00,4,R,ugm-3,13,R,ugm-3,19,R,ugm-3,66,R,ugm-3
14-01-2008,07:00,10,R,ugm-3,23,R,ugm-3,38,R,ugm-3,60,R,ugm-3
14-01-2008,08:00,15,R,ugm-3,32,R,ugm-3,55,R,ugm-3,50,R,ugm-3
14-01-2008,09:00,24,R,ugm-3,38,R,ugm-3,74,R,ugm-3,46,R,ugm-3
14-01-2008,10:00,16,R,ugm-3,29,R,ugm-3,53,R,ugm-3,52,R,ugm-3
14-01-2008,11:00,15,R,ugm-3,27,R,ugm-3,50,R,ugm-3,54,R,ugm-3
14-01-2008,12:00,23,R,ugm-3,31,R,ugm-3,65,R,ugm-3,52,R,ugm-3
14-01-2008,13:00,20,R,ugm-3,25,R,ugm-3,55,R,ugm-3,56,R,ugm-3
14-01-2008,14:00,16,R,ugm-3,27,R,ugm-3,52,R,ugm-3,60,R,ugm-3
14-01-2008,15:00,16,R,ugm-3,29,R,ugm-3,53,R,ugm-3,58,R,ugm-3
14-01-2008,16:00,19,R,ugm-3,34,R,ugm-3,63,R,ugm-3,52,R,ugm-3
14-01-2008,17:00,16,R,ugm-3,34,R,ugm-3,59,R,ugm-3,48,R,ugm-3
14-01-2008,18:00,16,R,ugm-3,32,R,ugm-3,57,R,ugm-3,48,R,ugm-3
14-01-2008,19:00,4,R,ugm-3,21,R,ugm-3,27,R,ugm-3,58,R,ugm-3
14-01-2008,20:00,5,R,ugm-3,25,R,ugm-3,32,R,ugm-3,54,R,ugm-3
14-01-2008,21:00,3,R,ugm-3,13,R,ugm-3,17,R,ugm-3,66,R,ugm-3
14-01-2008,22:00,1,R,ugm-3,10,R,ugm-3,11,R,ugm-3,72,R,ugm-3
14-01-2008,23:00,1,R,ugm-3,6,R,ugm-3,8,R,ugm-3,74,R,ugm-3
14-01-2008,24:00,0,R,ugm-3,6,R,ugm-3,6,R,ugm-3,76,R,ugm-3
15-01-2008,01:00,1,R,ugm-3,8,R,ugm-3,10,R,ugm-3,72,R,ugm-3
15-01-2008,02:00,0,R,ugm-3,8,R,ugm-3,8,R,ugm-3,76,R,ugm-3
15-01-2008,03:00,0,R,ugm-3,4,R,ugm-3,4,R,ugm-3,80,R,ugm-3
15-01-2008,04:00,0,R,ugm-3,4,R,ugm-3,4,R,ugm-3,82,R,ugm-3
15-01-2008,05:00,0,R,ugm-3,4,R,ugm-3,4,R,ugm-3,82,R,ugm-3
15-01-2008,06:00,3,R,ugm-3,10,R,ugm-3,13,R,ugm-3,76,R,ugm-3
15-01-2008,07:00,8,R,ugm-3,21,R,ugm-3,32,R,ugm-3,68,R,ugm-3
15-01-2008,08:00,8,R,ugm-3,25,R,ugm-3,36,R,ugm-3,64,R,ugm-3
15-01-2008,09:00,9,R,ugm-3,29,R,ugm-3,42,R,ugm-3,62,R,ugm-3
15-01-2008,10:00,15,R,ugm-3,27,R,ugm-3,50,R,ugm-3,62,R,ugm-3
15-01-2008,11:00,8,R,ugm-3,19,R,ugm-3,31,R,ugm-3,66,R,ugm-3
15-01-2008,12:00,23,R,ugm-3,36,R,ugm-3,71,R,ugm-3,56,R,ugm-3
15-01-2008,13:00,28,R,ugm-3,50,R,ugm-3,92,R,ugm-3,44,R,ugm-3
15-01-2008,14:00,34,R,ugm-3,65,R,ugm-3,117,R,ugm-3,34,R,ugm-3
15-01-2008,15:00,40,R,ugm-3,73,R,ugm-3,134,R,ugm-3,26,R,ugm-3
15-01-2008,16:00,28,R,ugm-3,55,R,ugm-3,97,R,ugm-3,40,R,ugm-3
15-01-2008,17:00,66,R,ugm-3,50,R,ugm-3,151,R,ugm-3,60,R,ugm-3
15-01-2008,18:00,21,R,ugm-3,42,R,ugm-3,74,R,ugm-3,60,R,ugm-3
15-01-2008,19:00,14,R,ugm-3,31,R,ugm-3,52,R,ugm-3,60,R,ugm-3
15-01-2008,20:00,9,R,ugm-3,23,R,ugm-3,36,R,ugm-3,60,R,ugm-3
15-01-2008,21:00,14,R,ugm-3,25,R,ugm-3,46,R,ugm-3,56,R,ugm-3
15-01-2008,22:00,10,R,ugm-3,25,R,ugm-3,40,R,ugm-3,54,R,ugm-3
15-01-2008,23:00,19,R,ugm-3,32,R,ugm-3,61,R,ugm-3,42,R,ugm-3
15-01-2008,24:00,6,R,ugm-3,17,R,ugm-3,27,R,ugm-3,54,R,ugm-3
16-01-2008,01:00,1,R,ugm-3,11,R,ugm-3,13,R,ugm-3,60,R,ugm-3
16-01-2008,02:00,4,R,ugm-3,23,R,ugm-3,29,R,ugm-3,46,R,ugm-3
16-01-2008,03:00,0,R,ugm-3,11,R,ugm-3,11,R,ugm-3,54,R,ugm-3
16-01-2008,04:00,0,R,ugm-3,13,R,ugm-3,13,R,ugm-3,54,R,ugm-3
16-01-2008,05:00,6,R,ugm-3,27,R,ugm-3,36,R,ugm-3,42,R,ugm-3
16-01-2008,06:00,81,R,ugm-3,55,R,ugm-3,180,R,ugm-3,16,R,ugm-3
16-01-2008,07:00,170,R,ugm-3,76,R,ugm-3,336,R,ugm-3,6,R,ugm-3
16-01-2008,08:00,264,R,ugm-3,122,R,ugm-3,525,R,ugm-3,6,R,ugm-3
16-01-2008,09:00,239,R,ugm-3,143,R,ugm-3,508,R,ugm-3,8,R,ugm-3
16-01-2008,10:00,194,R,ugm-3,117,R,ugm-3,413,R,ugm-3,10,R,ugm-3
16-01-2008,11:00,,,,,,,,,,,,
16-01-2008,12:00,118,R,ugm-3,101,R,ugm-3,281,R,ugm-3,16,R,ugm-3
16-01-2008,13:00,118,R,ugm-3,96,R,ugm-3,275,R,ugm-3,18,R,ugm-3
16-01-2008,14:00,128,R,ugm-3,94,R,ugm-3,288,R,ugm-3,18,R,ugm-3
16-01-2008,15:00,118,R,ugm-3,88,R,ugm-3,267,R,ugm-3,18,R,ugm-3
16-01-2008,16:00,148,R,ugm-3,105,R,ugm-3,330,R,ugm-3,12,R,ugm-3
16-01-2008,17:00,193,R,ugm-3,96,R,ugm-3,390,R,ugm-3,8,R,ugm-3
16-01-2008,18:00,159,R,ugm-3,99,R,ugm-3,342,R,ugm-3,8,R,ugm-3
16-01-2008,19:00,89,R,ugm-3,74,R,ugm-3,210,R,ugm-3,14,R,ugm-3
16-01-2008,20:00,71,R,ugm-3,67,R,ugm-3,176,R,ugm-3,18,R,ugm-3
16-01-2008,21:00,36,R,ugm-3,63,R,ugm-3,118,R,ugm-3,14,R,ugm-3
16-01-2008,22:00,78,R,ugm-3,73,R,ugm-3,191,R,ugm-3,12,R,ugm-3
16-01-2008,23:00,38,R,ugm-3,53,R,ugm-3,111,R,ugm-3,16,R,ugm-3
16-01-2008,24:00,44,R,ugm-3,46,R,ugm-3,113,R,ugm-3,14,R,ugm-3
17-01-2008,01:00,6,R,ugm-3,32,R,ugm-3,42,R,ugm-3,32,R,ugm-3
17-01-2008,02:00,5,R,ugm-3,29,R,ugm-3,36,R,ugm-3,36,R,ugm-3
17-01-2008,03:00,8,R,ugm-3,29,R,ugm-3,40,R,ugm-3,32,R,ugm-3
17-01-2008,04:00,5,R,ugm-3,29,R,ugm-3,36,R,ugm-3,32,R,ugm-3
17-01-2008,05:00,4,R,ugm-3,19,R,ugm-3,25,R,ugm-3,50,R,ugm-3
17-01-2008,06:00,4,R,ugm-3,15,R,ugm-3,21,R,ugm-3,66,R,ugm-3
17-01-2008,07:00,19,R,ugm-3,34,R,ugm-3,63,R,ugm-3,50,R,ugm-3